FW3958 Weather Reports


time (UTC)temp
C
wind
direction
speed
KPH
gust
KPH
rain 1hr
cm
rain 24hr
cm
rain mn
cm
humidity
%
barometer
mb
20260905094549 8 101 0.0 0.0 0.00 0.08 0.00 100 1018.3
20260905093047 8 100 0.0 0.0 0.00 0.08 0.00 100 1018.5
20260905091546 8 100 0.0 0.0 0.00 0.08 0.00 100 1018.3
20260905090103 8 101 0.0 0.0 0.00 0.08 0.00 100 1018.3
20260905084543 8 101 0.0 0.0 0.00 0.08 0.00 100 1018.1
20260905083048 9 101 0.0 0.0 0.00 0.08 0.00 100 1018.1
20260905081547 9 101 0.0 0.0 0.00 0.08 0.00 100 1018.1
20260905080045 9 101 0.0 0.0 0.00 0.08 0.00 100 1017.9
20260905074535 10 101 0.0 0.0 0.00 0.08 0.00 100 1017.8
20260905073037 10 101 0.0 0.0 0.00 0.08 0.00 100 1017.6
20260905071530 10 101 0.0 0.0 0.00 0.08 0.00 100 1017.5
20260905070031 11 101 0.0 0.0 0.00 0.08 0.08 100 1017.5
20260905064526 11 101 0.0 0.0 0.00 0.08 0.08 99 1017.4
20260905063026 12 101 1.6 6.4 0.00 0.08 0.08 100 1017.2
20260905061525 12 110 3.2 14.5 0.00 0.08 0.08 100 1017.2
20260905060032 11 104 0.0 3.2 0.00 0.08 0.08 100 1017.2
20260905054535 12 90 0.0 6.4 0.00 0.08 0.08 100 1017.2
20260905053023 12 103 1.6 6.4 0.00 0.08 0.08 100 1017.3
20260905051528 11 62 0.0 0.0 0.00 0.08 0.08 100 1017.2
20260905050021 12 62 0.0 4.8 0.00 0.08 0.08 100 1017.1
20260905044528 12 74 0.0 1.6 0.00 0.08 0.08 100 1017.1
20260905043020 12 74 0.0 8.0 0.00 0.08 0.08 100 1017.1
20260905041520 12 118 0.0 0.0 0.00 0.08 0.08 100 1017.1
20260905040018 12 118 0.0 0.0 0.00 0.08 0.08 100 1017.1
20260905034518 12 118 0.0 1.6 0.00 0.08 0.08 100 1017.1
20260905033116 12 118 1.6 6.4 0.00 0.08 0.08 100 1016.9
20260905031515 12 149 0.0 0.0 0.00 0.08 0.08 100 1016.9
20260905030015 13 150 0.0 0.0 0.00 0.08 0.08 100 1016.7
20260905024515 13 150 0.0 0.0 0.00 0.08 0.08 99 1016.4
20260905023019 14 143 0.0 0.0 0.00 0.08 0.08 99 1016.4
20260905021512 15 130 0.0 0.0 0.00 0.08 0.08 99 1016.5
20260905020012 15 130 0.0 0.0 0.00 0.08 0.08 99 1016.7
20260905014511 15 129 0.0 0.0 0.00 0.08 0.08 99 1016.5
20260905013012 15 129 0.0 0.0 0.00 0.08 0.08 99 1016.5
20260905011514 15 129 0.0 0.0 0.03 0.08 0.08 99 1016.2
20260905010008 16 129 0.0 0.0 0.05 0.10 0.08 99 1016.2
20260905004506 16 129 0.0 0.0 0.08 0.10 0.08 98 1016.0
20260905003010 16 129 0.0 0.0 0.08 0.10 0.08 97 1015.9
20260905001510 16 85 0.0 3.2 0.05 0.08 0.05 94 1016.0
20260905000005 16 174 0.0 1.6 0.03 0.36 0.03 90 1015.9
20260904234503 17 172 0.0 3.2 0.00 0.33 0.00 90 1015.6
20260904233002 17 185 0.0 9.7 0.00 0.33 0.00 89 1015.5
20260904231501 18 219 1.6 6.4 0.00 0.33 0.00 88 1015.3
20260904230110 18 227 0.0 6.4 0.00 0.33 0.00 84 1015.2
20260904224559 18 151 0.0 0.0 0.00 0.33 0.00 80 1015.0
20260904223104 19 45 0.0 0.0 0.00 0.33 0.00 76 1014.9
20260904221600 18 4 0.0 6.4 0.00 0.33 0.00 77 1014.9
20260904220116 19 5 3.2 17.7 0.00 0.33 0.00 75 1014.7
20260904214553 19 5 0.0 6.4 0.00 0.33 0.00 78 1014.6
20260904213052 19 70 0.0 11.3 0.00 0.33 0.00 77 1014.5
20260904211551 18 41 0.0 4.8 0.00 0.33 0.00 79 1014.6
20260904210050 18 27 1.6 12.9 0.00 0.33 0.00 81 1014.6
20260904204551 18 50 0.0 4.8 0.00 0.33 0.00 78 1014.6
20260904203048 19 18 0.0 8.0 0.00 0.33 0.00 76 1014.7
20260904201553 19 78 0.0 14.5 0.00 0.33 0.00 73 1014.5
20260904200054 19 19 3.2 12.9 0.00 0.36 0.00 73 1014.5
20260904194548 19 26 1.6 9.7 0.00 0.36 0.00 78 1014.4
20260904193041 18 132 4.8 14.5 0.00 0.36 0.00 76 1014.6
20260904191539 18 111 0.0 16.1 0.00 0.36 0.00 77 1014.7
20260904190038 18 113 6.4 20.9 0.00 0.36 0.00 75 1014.6
20260904184600 17 132 4.8 17.7 0.00 0.36 0.00 80 1014.6
20260904183039 17 85 3.2 14.5 0.00 0.36 0.00 80 1014.6
20260904181535 17 72 3.2 19.3 0.00 0.36 0.00 80 1014.6
20260904180030 17 95 4.8 17.7 0.00 0.36 0.00 83 1014.6
20260904174600 17 21 4.8 17.7 0.00 0.36 0.00 84 1014.5
20260904173025 16 133 0.0 9.7 0.00 0.36 0.00 92 1014.5
20260904171522 16 114 0.0 8.0 0.00 0.36 0.00 93 1014.4
20260904170036 15 95 0.0 6.4 0.00 0.56 0.00 97 1014.3
20260904164516 13 68 0.0 6.4 0.00 0.56 0.00 98 1014.4
20260904163011 13 80 0.0 3.2 0.00 0.56 0.00 100 1014.4
20260904161509 12 43 0.0 0.0 0.00 0.56 0.00 100 1014.4
20260904160006 12 38 0.0 1.6 0.00 0.76 0.00 100 1014.3
20260904154503 12 68 0.0 0.0 0.00 0.76 0.00 100 1014.2
20260904153128 11 68 0.0 1.6 0.00 0.76 0.00 100 1014.0
20260904151605 10 41 0.0 0.0 0.00 0.76 0.00 100 1013.7
20260904150056 10 41 0.0 0.0 0.00 0.81 0.00 100 1013.7
20260904144556 10 41 0.0 0.0 0.00 0.81 0.00 100 1013.7
20260904143054 9 41 0.0 0.0 0.00 0.81 0.00 100 1013.5
20260904141552 9 90 0.0 0.0 0.00 0.81 0.00 100 1013.3
20260904140050 9 90 0.0 0.0 0.00 1.07 0.00 100 1013.0
20260904134548 8 90 0.0 0.0 0.00 1.07 0.00 100 1012.8
20260904133047 9 105 0.0 0.0 0.00 1.07 0.00 100 1012.6
20260904131545 9 105 0.0 0.0 0.00 1.07 0.00 100 1012.6
20260904130043 10 105 0.0 0.0 0.00 1.30 0.00 100 1012.7
20260904124542 10 105 0.0 0.0 0.00 1.30 0.00 100 1012.6
20260904123040 10 105 0.0 0.0 0.00 1.30 0.00 100 1012.6
20260904121640 10 102 0.0 0.0 0.00 1.30 0.00 100 1012.3
20260904120038 11 103 0.0 4.8 0.00 2.39 0.00 100 1012.2
20260904114536 10 53 0.0 1.6 0.00 2.39 0.00 100 1012.1
20260904113036 10 53 0.0 0.0 0.00 2.39 0.00 100 1012.1
20260904111535 10 53 0.0 3.2 0.00 2.39 0.00 100 1012.0
20260904110036 10 53 0.0 0.0 0.00 2.64 0.00 100 1011.9
20260904104531 10 53 0.0 0.0 0.00 2.64 0.00 100 1012.0
20260904103031 10 53 0.0 1.6 0.00 2.64 0.00 100 1012.0
20260904101530 10 52 0.0 0.0 0.00 2.64 0.00 100 1012.0
20260904100029 11 52 0.0 0.0 0.00 3.58 0.00 100 1012.1